KA2FNK Weather Reports


Display with metric or nautical units.
time (UTC)temp
F
wind
direction
speed
MPH
gust
MPH
rain 1hr
in
rain 24hr
in
rain mn
in
humidity
%
barometer
mb
20260903041240 86 197 0.0 0.0 0.00 0.00 0.00 48 1012.6
20260903040727 86 197 0.0 0.0 0.00 0.00 0.00 48 1012.7
20260903040214 86 197 0.0 0.0 0.00 0.00 0.00 48 1012.6
20260903035701 86 197 0.0 0.0 0.00 0.00 0.00 48 1012.7
20260903035148 87 197 0.0 0.0 0.00 0.00 0.00 48 1012.7
20260903034635 86 197 0.0 0.0 0.00 0.00 0.00 48 1012.7
20260903034122 87 197 0.0 0.0 0.00 0.00 0.00 47 1012.7
20260903033609 87 197 0.0 2.0 0.00 0.00 0.00 48 1012.7
20260903033056 87 187 0.0 0.0 0.00 0.00 0.00 47 1012.7
20260903032543 87 187 0.0 0.0 0.00 0.00 0.00 47 1012.8
20260903032030 87 187 0.0 0.0 0.00 0.00 0.00 46 1012.7
20260903031517 87 187 0.0 0.0 0.00 0.00 0.00 46 1012.7
20260903031004 88 187 0.0 0.0 0.00 0.00 0.00 46 1012.7
20260903030451 88 187 0.0 0.0 0.00 0.00 0.00 46 1012.7
20260903025938 88 187 0.0 0.0 0.00 0.00 0.00 45 1012.6
20260903025425 88 187 0.0 0.0 0.00 0.00 0.00 45 1012.6
20260903024912 88 187 0.0 0.0 0.00 0.00 0.00 46 1012.6
20260903024359 88 187 0.0 0.0 0.00 0.00 0.00 45 1012.6
20260903023846 88 187 0.0 0.0 0.00 0.00 0.00 45 1012.7
20260903023333 88 187 0.0 0.0 0.00 0.00 0.00 45 1012.7
20260903022820 88 187 0.0 0.0 0.00 0.00 0.00 45 1012.7
20260903022307 88 187 0.0 0.0 0.00 0.00 0.00 46 1012.7
20260903021754 88 187 0.0 0.0 0.00 0.00 0.00 46 1012.5
20260903021241 88 187 0.0 0.0 0.00 0.00 0.00 45 1012.5
20260903020728 88 187 0.0 0.0 0.00 0.00 0.00 45 1012.5
20260903020215 88 187 0.0 0.0 0.00 0.00 0.00 44 1012.3
20260903015702 88 187 0.0 0.0 0.00 0.00 0.00 43 1012.3
20260903015149 88 187 0.0 0.0 0.00 0.00 0.00 43 1012.3
20260903014636 89 187 0.0 0.0 0.00 0.00 0.00 42 1012.2
20260903014123 89 187 0.0 0.0 0.00 0.00 0.00 42 1012.2
20260903013610 89 187 0.0 0.0 0.00 0.00 0.00 41 1012.1
20260903013057 90 187 0.0 0.0 0.00 0.00 0.00 41 1012.0
20260903012544 90 187 0.0 0.0 0.00 0.00 0.00 40 1011.9
20260903012031 90 187 0.0 0.0 0.00 0.00 0.00 39 1011.9
20260903011518 91 187 0.0 0.0 0.00 0.00 0.00 38 1011.9
20260903011005 92 187 0.0 0.0 0.00 0.00 0.00 38 1011.8
20260903010452 92 187 0.0 0.0 0.00 0.00 0.00 38 1011.8
20260903005939 92 187 0.0 0.0 0.00 0.00 0.00 37 1011.7
20260903005426 92 187 0.0 0.0 0.00 0.00 0.00 36 1011.7
20260903004913 93 187 0.0 0.0 0.00 0.00 0.00 36 1011.8
20260903004400 93 187 0.0 0.0 0.00 0.00 0.00 35 1011.7
20260903003847 94 187 0.0 0.0 0.00 0.00 0.00 35 1011.7
20260903003334 94 187 0.0 0.0 0.00 0.00 0.00 34 1011.7
20260903002821 94 187 0.0 0.0 0.00 0.00 0.00 33 1011.6
20260903002308 94 187 0.0 0.0 0.00 0.00 0.00 33 1011.7
20260903001755 94 187 0.0 0.0 0.00 0.00 0.00 33 1011.7
20260903001242 95 187 0.0 0.0 0.00 0.00 0.00 33 1011.7
20260903000729 95 187 0.0 4.0 0.00 0.00 0.00 32 1011.7
20260903000218 95 201 4.0 4.0 0.00 0.00 0.00 32 1011.7
20260902235703 95 184 0.0 3.0 0.00 0.00 0.00 32 1011.7
20260902235150 95 181 0.0 7.0 0.00 0.00 0.00 32 1011.8
20260902234637 95 195 2.0 4.0 0.00 0.00 0.00 31 1011.8
20260902234124 95 155 0.0 7.0 0.00 0.00 0.00 32 1011.8
20260902233611 95 273 1.0 2.0 0.00 0.00 0.00 32 1011.8
20260902233058 96 158 0.0 4.0 0.00 0.00 0.00 32 1011.8
20260902232545 96 210 0.0 4.0 0.00 0.00 0.00 32 1011.8
20260902232032 96 198 0.0 0.0 0.00 0.00 0.00 32 1011.8
20260902230436 96 170 0.0 0.0 0.00 0.00 0.00 32 1011.8
20260902225923 96 170 0.0 3.0 0.00 0.00 0.00 31 1011.8
20260902225410 96 202 0.0 6.0 0.00 0.00 0.00 31 1011.9
20260902224857 96 200 5.0 11.0 0.00 0.00 0.00 30 1011.8
20260902224344 96 218 4.0 9.0 0.00 0.00 0.00 31 1011.8
20260902223831 96 190 0.0 10.0 0.00 0.00 0.00 32 1011.8
20260902223318 96 235 0.0 0.0 0.00 0.00 0.00 33 1011.8
20260902222805 96 235 2.0 6.0 0.00 0.00 0.00 31 1011.8
20260902222252 96 276 4.0 10.0 0.00 0.00 0.00 32 1011.9
20260902221739 96 170 0.0 5.0 0.00 0.00 0.00 31 1011.9
20260902221226 96 125 0.0 11.0 0.00 0.00 0.00 31 1011.8
20260902220713 97 219 0.0 8.0 0.00 0.00 0.00 32 1011.9
20260902220200 97 162 0.0 10.0 0.00 0.00 0.00 32 1011.9
20260902215647 97 195 0.0 13.0 0.00 0.00 0.00 31 1012.0
20260902215134 97 190 0.0 2.0 0.00 0.00 0.00 32 1012.0
20260902214621 97 188 0.0 6.0 0.00 0.00 0.00 31 1012.0
20260902214108 97 222 0.0 7.0 0.00 0.00 0.00 32 1012.0
20260902213555 96 163 0.0 10.0 0.00 0.00 0.00 31 1012.1
20260902213042 96 187 0.0 0.0 0.00 0.00 0.00 31 1012.2
20260902211254 96 212 4.0 120.0 0.00 0.00 0.00 30 1012.5